Storm Events Database

Event Details

Event Hail
Magnitude 2.75 in.
State TEXAS
County/Area HARTLEY
WFO AMA
Begin Date 05/18/2010 16:41:00 CST-6
Begin Range 3
Begin Azimuth SE
Begin Location HARTLEY
Begin Lat/Lon 35.85/-102.36
End Date 05/18/2010 16:41:00 CST-6
Deaths Direct/Indirect 0/0 (fatality details below, when available...)
Injuries Direct/Indirect 0/0
Property Damage 0.00K
Crop Damage 0.00K
Episode Narrative Severe thunderstorms producing many tornadoes along with large hail and strong thunderstorm wind gusts tracked across much of the Texas Panhandle from the early evening hours into the early morning hours. No injuries were reported...however a few of the tornadoes caused some damage.
Event Narrative


All events for this episode:

Location County/Zone St. Date Time T.Z. Type Mag Dth Inj PrD CrD
Totals: 0 0 117.00K 10.00K
HARTLEY HARTLEY CO. TX 05/18/2010 16:09 CST-6 Hail 1.00 in. 0 0 0.00K 0.00K
HARTLEY HARTLEY CO. TX 05/18/2010 16:13 CST-6 Hail 0.88 in. 0 0 0.00K 0.00K
HARTLEY HARTLEY CO. TX 05/18/2010 16:22 CST-6 Hail 1.00 in. 0 0 0.00K 0.00K
HARTLEY HARTLEY CO. TX 05/18/2010 16:23 CST-6 Hail 1.75 in. 0 0 0.00K 0.00K
HARTLEY HARTLEY CO. TX 05/18/2010 16:31 CST-6 Hail 1.75 in. 0 0 0.00K 0.00K
HARTLEY HARTLEY CO. TX 05/18/2010 16:32 CST-6 Tornado EF0 0 0 0.00K 0.00K
HARTLEY HARTLEY CO. TX 05/18/2010 16:38 CST-6 Hail 2.75 in. 0 0 0.00K 0.00K
HARTLEY HARTLEY CO. TX 05/18/2010 16:40 CST-6 Hail 2.50 in. 0 0 0.00K 0.00K
HARTLEY HARTLEY CO. TX 05/18/2010 16:41 CST-6 Hail 2.75 in. 0 0 0.00K 0.00K
HARTLEY HARTLEY CO. TX 05/18/2010 16:41 CST-6 Tornado EF0 0 0 0.00K 0.00K
HARTLEY HARTLEY CO. TX 05/18/2010 16:43 CST-6 Hail 2.75 in. 0 0 0.00K 0.00K
DUMAS MUNI ARPT MOORE CO. TX 05/18/2010 16:54 CST-6 Hail 1.75 in. 0 0 0.00K 0.00K
HARTLEY HARTLEY CO. TX 05/18/2010 16:54 CST-6 Hail 1.75 in. 0 0 0.00K 0.00K
DUMAS MOORE CO. TX 05/18/2010 16:55 CST-6 Tornado EF0 0 0 0.00K 0.00K
DUMAS MUNI ARPT MOORE CO. TX 05/18/2010 17:06 CST-6 Hail 2.50 in. 0 0 0.00K 0.00K
DUMAS MUNI ARPT MOORE CO. TX 05/18/2010 17:06 CST-6 Hail 2.50 in. 0 0 0.00K 0.00K
DUMAS MUNI ARPT MOORE CO. TX 05/18/2010 17:16 CST-6 Hail 1.75 in. 0 0 0.00K 0.00K
DUMAS MOORE CO. TX 05/18/2010 17:27 CST-6 Hail 2.75 in. 0 0 0.00K 0.00K
DUMAS MUNI ARPT MOORE CO. TX 05/18/2010 17:28 CST-6 Thunderstorm Wind 58 kts. MG 0 0 0.00K 0.00K
DUMAS MOORE CO. TX 05/18/2010 17:28 CST-6 Tornado EF0 0 0 0.00K 0.00K
DUMAS MOORE CO. TX 05/18/2010 17:31 CST-6 Hail 1.50 in. 0 0 0.00K 0.00K
DUMAS MOORE CO. TX 05/18/2010 17:34 CST-6 Hail 2.00 in. 0 0 0.00K 0.00K
DUMAS MOORE CO. TX 05/18/2010 17:34 CST-6 Hail 1.75 in. 0 0 0.00K 0.00K
DUMAS MOORE CO. TX 05/18/2010 17:35 CST-6 Thunderstorm Wind 56 kts. EG 0 0 1.00K 0.00K
DUMAS MOORE CO. TX 05/18/2010 17:35 CST-6 Hail 1.75 in. 0 0 1.00K 0.00K
DUMAS MOORE CO. TX 05/18/2010 17:36 CST-6 Hail 1.75 in. 0 0 0.00K 0.00K
DUMAS MOORE CO. TX 05/18/2010 17:38 CST-6 Hail 1.50 in. 0 0 0.00K 0.00K
DUMAS MOORE CO. TX 05/18/2010 17:42 CST-6 Tornado EF0 0 0 0.00K 0.00K
DUMAS MOORE CO. TX 05/18/2010 17:59 CST-6 Hail 1.25 in. 0 0 0.00K 0.00K
SUNRAY MOORE CO. TX 05/18/2010 18:08 CST-6 Hail 2.00 in. 0 0 0.00K 0.00K
PRINGLE HUTCHINSON CO. TX 05/18/2010 18:18 CST-6 Hail 2.75 in. 0 0 0.00K 0.00K
LAKE MEREDITH MOORE CO. TX 05/18/2010 18:30 CST-6 Hail 1.00 in. 0 0 0.00K 0.00K
SUNRAY MOORE CO. TX 05/18/2010 18:30 CST-6 Hail 1.00 in. 0 0 0.00K 0.00K
PRINGLE HUTCHINSON CO. TX 05/18/2010 18:33 CST-6 Hail 0.88 in. 0 0 0.00K 0.00K
PRINGLE HUTCHINSON CO. TX 05/18/2010 18:37 CST-6 Hail 1.75 in. 0 0 0.00K 0.00K
PRINGLE HUTCHINSON CO. TX 05/18/2010 18:40 CST-6 Hail 1.75 in. 0 0 0.00K 0.00K
PRINGLE HUTCHINSON CO. TX 05/18/2010 18:41 CST-6 Hail 0.88 in. 0 0 0.00K 0.00K
PRINGLE HUTCHINSON CO. TX 05/18/2010 18:44 CST-6 Tornado EF2 0 0 40.00K 0.00K
PRINGLE HUTCHINSON CO. TX 05/18/2010 18:56 CST-6 Hail 2.75 in. 0 0 0.00K 0.00K
PRINGLE HUTCHINSON CO. TX 05/18/2010 19:00 CST-6 Hail 2.00 in. 0 0 0.00K 0.00K
PRINGLE HUTCHINSON CO. TX 05/18/2010 19:03 CST-6 Hail 1.75 in. 0 0 0.00K 0.00K
PRINGLE HUTCHINSON CO. TX 05/18/2010 19:05 CST-6 Hail 2.75 in. 0 0 8.00K 0.00K
PERICO DALLAM CO. TX 05/18/2010 19:08 CST-6 Hail 1.00 in. 0 0 0.00K 0.00K
PERICO DALLAM CO. TX 05/18/2010 19:08 CST-6 Hail 1.00 in. 0 0 0.00K 0.00K
PRINGLE HUTCHINSON CO. TX 05/18/2010 19:12 CST-6 Hail 1.00 in. 0 0 0.00K 0.00K
WARE DALLAM CO. TX 05/18/2010 19:35 CST-6 Hail 1.75 in. 0 0 0.00K 0.00K
PRINGLE HUTCHINSON CO. TX 05/18/2010 19:35 CST-6 Hail 1.75 in. 0 0 0.00K 10.00K
WARE DALLAM CO. TX 05/18/2010 19:40 CST-6 Hail 1.75 in. 0 0 0.00K 0.00K
WARE DALLAM CO. TX 05/18/2010 19:40 CST-6 Hail 1.75 in. 0 0 0.00K 0.00K
LAUTZ SHERMAN CO. TX 05/18/2010 19:42 CST-6 Hail 0.75 in. 0 0 0.00K 0.00K
WARE DALLAM CO. TX 05/18/2010 19:47 CST-6 Hail 1.00 in. 0 0 0.00K 0.00K
WARE DALLAM CO. TX 05/18/2010 19:52 CST-6 Tornado EF0 0 0 0.00K 0.00K
LAUTZ SHERMAN CO. TX 05/18/2010 20:00 CST-6 Hail 1.00 in. 0 0 0.00K 0.00K
CONLEN DALLAM CO. TX 05/18/2010 20:30 CST-6 Tornado EF0 0 0 0.00K 0.00K
CODMAN ROBERTS CO. TX 05/18/2010 20:31 CST-6 Hail 1.75 in. 0 0 0.00K 0.00K
MIAMI ROBERTS CO. TX 05/18/2010 20:52 CST-6 Thunderstorm Wind 60 kts. MG 0 0 0.00K 0.00K
MIAMI ROBERTS CO. TX 05/18/2010 21:12 CST-6 Thunderstorm Wind 61 kts. MG 0 0 0.00K 0.00K
STRATFORD SHERMAN CO. TX 05/18/2010 21:40 CST-6 Tornado EF0 0 0 0.00K 0.00K
MALLETT SHERMAN CO. TX 05/18/2010 21:47 CST-6 Hail 2.00 in. 0 0 15.00K 0.00K
MALLETT SHERMAN CO. TX 05/18/2010 21:47 CST-6 Hail 1.50 in. 0 0 0.00K 0.00K
CANADIAN HEMPHILL CO. TX 05/18/2010 21:53 CST-6 Hail 1.25 in. 0 0 0.00K 0.00K
CANADIAN HEMPHILL CO. TX 05/18/2010 22:02 CST-6 Hail 2.00 in. 0 0 0.00K 0.00K
CANADIAN HEMPHILL CO. TX 05/18/2010 22:11 CST-6 Hail 2.00 in. 0 0 0.00K 0.00K
STRATFORD SHERMAN CO. TX 05/18/2010 22:27 CST-6 Tornado EF0 0 0 12.00K 0.00K
CANADIAN HEMPHILL CO. TX 05/18/2010 22:50 CST-6 Hail 1.75 in. 0 0 0.00K 0.00K
GRUVER HANSFORD CO. TX 05/18/2010 23:12 CST-6 Tornado EF0 0 0 0.00K 0.00K
HITCHLAND HANSFORD CO. TX 05/18/2010 23:40 CST-6 Hail 1.75 in. 0 0 0.00K 0.00K
DUMAS MOORE CO. TX 05/19/2010 00:10 CST-6 Hail 1.25 in. 0 0 0.00K 0.00K
DUMAS MOORE CO. TX 05/19/2010 00:13 CST-6 Hail 1.75 in. 0 0 12.00K 0.00K
DUMAS MOORE CO. TX 05/19/2010 00:16 CST-6 Hail 1.50 in. 0 0 0.00K 0.00K
PRINGLE HUTCHINSON CO. TX 05/19/2010 00:56 CST-6 Tornado EF1 0 0 28.00K 0.00K
HIGGINS LIPSCOMB CO. TX 05/19/2010 02:20 CST-6 Hail 1.75 in. 0 0 0.00K 0.00K
HIGGINS LIPSCOMB CO. TX 05/19/2010 02:26 CST-6 Hail 1.00 in. 0 0 0.00K 0.00K
WAKA OCHILTREE CO. TX 05/19/2010 02:30 CST-6 Hail 1.75 in. 0 0 0.00K 0.00K
FARNSWORTH OCHILTREE CO. TX 05/19/2010 02:32 CST-6 Tornado EF0 0 0 0.00K 0.00K
PERRYTON MUNI ARPT OCHILTREE CO. TX 05/19/2010 03:00 CST-6 Hail 0.75 in. 0 0 0.00K 0.00K
Totals: 0 0 117.00K 10.00K